Torna al catalogo

COSMOS 800

AttivoMilitarePO
NORAD 8645·PAYLOAD·🇷🇺 Russia

Lanciato Feb 3, 1976 da Plesetsk Cosmodrome

Loading…

Prossimi Passaggi (prossime 24 ore)

TLE

AggiornatoSource: Space-Track

Epoca: Sep 14, 2026, 22:07 UTC

1 08645U 76011A   26257.92188022  .00000029  00000-0  14878-4 0  9995
2 08645  82.9711  50.7320 0022693  91.5121  73.5290 13.72206868533696

Traccia COSMOS 800 in tempo reale con AllMySat

Download on the App Store